Avalon, CA

1:18 AM PST on November 24, 2017 (GMT -0800)
Catalina

Weather History for KAVX - November, 2012

Change the Weather History Date:

Tuesday, November 27, 2012

  Actual Average Record
Temperature  
Mean Temperature 57 °F -  
Max Temperature 64 °F 59 °F 77 °F (2011)
Min Temperature 50 °F 49 °F 43 °F (2015)
Degree Days  
Heating Degree Days 8    
Growing Degree Days 7 (Base 50)    
Moisture  
Dew Point 49 °F    
Average Humidity 90    
Maximum Humidity 100    
Minimum Humidity 42    
Precipitation  
Precipitation 0.00 in - - ()
Sea Level Pressure  
Sea Level Pressure 30.12 in    
Wind  
Wind Speed 6 mph (WSW)    
Max Wind Speed 13 mph    
Max Gust Speed -    
Visibility 5 miles    
Events Fog    
Averages and records for this station are not official NWS values.
T = Trace of Precipitation, MM = Missing Value Source: NWS Daily Summary

Daily Weather History Graph

Daily Weather History Graph

Search for Another Location

Airport or City:

Trip Planner

Search our weather history database for the weather conditions in past years. The results will help you decide how hot, cold, wet, or windy it might be!

Date:

Astronomy

Nov. 27, 2012 Rise Set
Actual Time 6:36 AM PST 4:46 PM PST
Civil Twilight 6:09 AM PST 5:13 PM PST
Nautical Twilight 5:39 AM PST 5:43 PM PST
Astronomical Twilight 5:09 AM PST 6:13 PM PST
Moon 4:20 PM PST (11/27) 5:46 AM PST (11/27)
Length of Visible Light 11h 03m
Length of Day
10h 09m
Waxing Gibbous, 99% of the Moon is Illuminated
Nov 27
Waxing Gibbous
Nov 28
Full
Dec 6
Last Quarter
Dec 13
New
Dec 19
First Quarter

Hourly Weather History & Observations

Time (PST) Temp. Dew Point Humidity Pressure Visibility Wind Dir Wind Speed Gust Speed Precip Events Conditions
12:00 AM 50.0 °F 50.0 °F 100% 30.12 in 2.0 mi Calm Calm - N/A   Mist
12:07 AM 50.0 °F 48.2 °F 94% 30.12 in 10.0 mi SSE 5.8 mph - N/A   Unknown
12:51 AM 57.9 °F 35.1 °F 42% 30.08 in 10.0 mi SSE 5.8 mph - N/A   Clear
1:51 AM 53.1 °F 48.0 °F 83% 30.10 in 10.0 mi WSW 8.1 mph - N/A   Clear
1:57 AM 51.8 °F 50.0 °F 94% 30.12 in 1.2 mi SW 6.9 mph - N/A   Partly Cloudy
1:59 AM 50.0 °F 50.0 °F 100% 30.12 in 0.8 mi SW 8.1 mph - N/A   Mist
2:51 AM 50.0 °F 50.0 °F 100% 30.10 in 0.2 mi Calm Calm - N/A Fog Fog
3:04 AM 50.0 °F 50.0 °F 100% 30.10 in 2.5 mi Calm Calm - N/A   Mostly Cloudy
3:06 AM 50.0 °F 50.0 °F 100% 30.10 in 7.0 mi East 3.5 mph - N/A   Scattered Clouds
3:51 AM 55.0 °F 32.0 °F 42% 30.09 in 1.5 mi West 11.5 mph - N/A   Haze
3:53 AM 51.8 °F 32.0 °F 47% 30.10 in 0.8 mi WSW 9.2 mph - N/A   Haze
4:51 AM 51.1 °F 51.1 °F 100% 30.12 in 0.2 mi SW 10.4 mph - N/A Fog Fog
5:48 AM 51.8 °F 51.8 °F 100% 30.14 in 1.2 mi WSW 12.7 mph - N/A   Overcast
5:51 AM 51.1 °F 51.1 °F 100% 30.14 in 1.2 mi WSW 12.7 mph - N/A   Overcast
6:05 AM 50.0 °F 50.0 °F 100% 30.14 in 3.0 mi WSW 12.7 mph - N/A   Overcast
6:51 AM 50.0 °F 50.0 °F 100% 30.15 in 7.0 mi West 9.2 mph - N/A   Overcast
7:51 AM 50.0 °F 50.0 °F 100% 30.16 in 7.0 mi NW 6.9 mph - N/A   Overcast
8:40 AM 51.8 °F 50.0 °F 94% 30.17 in 9.0 mi NNW 5.8 mph - N/A   Scattered Clouds
8:51 AM 51.1 °F 50.0 °F 96% 30.18 in 9.0 mi NNW 4.6 mph - N/A   Partly Cloudy
9:51 AM 57.9 °F 50.0 °F 75% 30.16 in 10.0 mi Calm Calm - N/A   Clear
10:51 AM 62.1 °F 52.0 °F 70% 30.13 in 10.0 mi Calm Calm - N/A   Clear
11:51 AM 64.9 °F 46.9 °F 52% 30.11 in 10.0 mi Calm Calm - N/A   Clear
12:51 PM 63.0 °F 48.9 °F 60% 30.06 in 10.0 mi South 4.6 mph - N/A   Clear
1:51 PM 57.0 °F 52.0 °F 83% 30.07 in 10.0 mi WSW 10.4 mph - N/A   Clear
3:51 PM 59.0 °F 48.0 °F 67% 30.06 in 10.0 mi WSW 8.1 mph - N/A   Clear
4:51 PM 53.1 °F 52.0 °F 96% 30.08 in 7.0 mi WSW 10.4 mph - N/A   Partly Cloudy
5:04 PM 53.6 °F 51.8 °F 94% 30.08 in 3.0 mi WSW 8.1 mph - N/A   Mostly Cloudy
5:09 PM 53.6 °F 51.8 °F 94% 30.09 in 1.8 mi WSW 9.2 mph - N/A   Mostly Cloudy
5:15 PM 51.8 °F 51.8 °F 100% 30.08 in 0.8 mi SW 8.1 mph - N/A   Mist
5:27 PM 51.8 °F 51.8 °F 100% 30.09 in 1.2 mi SW 3.5 mph - N/A   Mostly Cloudy
5:30 PM 51.8 °F 50.0 °F 94% 30.09 in 3.0 mi Calm Calm - N/A   Mostly Cloudy
5:41 PM 51.8 °F 51.8 °F 100% 30.09 in 7.0 mi SW 5.8 mph - N/A   Scattered Clouds
6:02 PM 51.8 °F 51.8 °F 100% 30.09 in 2.5 mi SW 5.8 mph - N/A   Partly Cloudy
6:09 PM 53.6 °F 50.0 °F 88% 30.10 in 10.0 mi WSW 6.9 mph - N/A   Partly Cloudy
6:51 PM 53.1 °F 50.0 °F 89% 30.12 in 10.0 mi SW 3.5 mph - N/A   Clear
7:02 PM 51.8 °F 51.8 °F 100% 30.12 in 7.0 mi WSW 6.9 mph - N/A   Partly Cloudy
7:19 PM 51.8 °F 51.8 °F 100% 30.13 in 4.0 mi SSW 3.5 mph - N/A   Mostly Cloudy
7:40 PM 51.8 °F 51.8 °F 100% 30.12 in 9.0 mi SW 5.8 mph - N/A   Scattered Clouds
7:51 PM 52.0 °F 51.1 °F 97% 30.13 in 6.0 mi SW 5.8 mph - N/A   Partly Cloudy
8:51 PM 52.0 °F 51.1 °F 97% 30.14 in 10.0 mi WSW 10.4 mph - N/A   Clear
9:03 PM 51.8 °F 51.8 °F 100% 30.15 in 3.0 mi WSW 10.4 mph - N/A   Scattered Clouds
9:07 PM 51.8 °F 51.8 °F 100% 30.15 in 1.8 mi WSW 11.5 mph - N/A   Mostly Cloudy
9:13 PM 51.8 °F 51.8 °F 100% 30.15 in 0.8 mi WSW 11.5 mph - N/A   Mist
9:45 PM 51.8 °F 51.8 °F 100% 30.15 in 0.8 mi WSW 5.8 mph - N/A   Mist
9:51 PM 52.0 °F 52.0 °F 100% 30.13 in 0.8 mi NW 3.5 mph - N/A   Mist
9:55 PM 51.8 °F 50.0 °F 94% 30.14 in 1.2 mi North 5.8 mph - N/A   Mostly Cloudy
9:58 PM 53.6 °F 48.2 °F 82% 30.14 in 4.0 mi North 5.8 mph - N/A   Haze
10:06 PM 53.6 °F 46.4 °F 77% 30.16 in 9.0 mi WSW 8.1 mph - N/A   Scattered Clouds
10:51 PM 54.0 °F 46.9 °F 77% 30.13 in 10.0 mi NNE 4.6 mph - N/A   Partly Cloudy
11:51 PM 51.1 °F 51.1 °F 100% 30.12 in 7.0 mi East 8.1 mph - N/A   Clear